[[{"header":{"parameterUnit":"m.s-1","parameterCategory":1,"la1":30.2991,"la2":30.254,"lo1":-89.0895,"lo2":-89.0444,"dy":0.0017,"dx":0.0017,"nx":28,"ny":28,"refTime":"2025-01-24T09:00:00:Z","depth":0,"parameterNumber":2,"parameterNumberName":"U-component_of_WINDS"},"data":[0,0,0,0,0,0,0,0,0,0,0,0,0,0,0,0,0,0,0,0,0,0,0,0,0,0,0,0,0,0,0,0,0,0,0,0,0,0,0,0,0,0,0,0,0,0,0,0,0,0,0,0,0,0,0,0,0,0,1.1212,1.1211,0,1.1156,1.1156,1.1155,1.1096,1.1095,1.1094,1.1094,1.1035,1.1034,1.1033,0,0,0,0,0,0,0,0,0,0,0,0,0,1.1266,1.1266,1.1212,1.1211,1.1211,1.1156,1.1156,1.1155,1.1096,1.1095,1.1094,1.1093,1.1035,1.1034,1.1033,0,0,0,0,0,0,0,0,0,0,0,0,0,1.123,1.1265,1.1212,1.1175,1.1171,1.1157,1.1156,1.1155,1.1096,1.1095,1.1094,1.1093,1.1035,1.1034,1.1033,1.105,0,0,1.1029,1.1029,0,0,0,0,0,0,0,0,1.1232,1.1228,1.1181,1.1177,1.1173,1.1132,1.1153,1.112,1.1097,1.1125,1.1093,1.1092,1.1068,1.1064,1.1056,1.1048,1.1045,1.1029,1.1028,1.1028,1.1028,0,0,0,0,0,0,0,1.1235,1.123,1.119,1.118,1.1176,1.116,1.1154,1.1147,1.1104,1.1122,1.1118,1.1112,1.1065,1.1057,1.1054,1.1044,1.1029,1.1028,1.1027,1.1027,1.1048,1.1049,0,0,0,0,0,0,1.1243,1.1232,1.1192,1.1188,1.12,1.1161,1.1153,1.1146,1.1104,1.1096,1.1113,1.1109,1.106,1.1056,1.1052,1.107,1.1028,1.1027,1.1026,1.1047,1.1048,1.105,0,0,0,0,0,0,1.1244,1.124,1.1194,1.1209,1.1202,1.1161,1.1154,1.1146,1.1138,1.1097,1.1089,1.1113,1.1059,1.1054,1.1052,1.1067,1.1026,1.1025,1.1045,1.1047,1.1049,1.1106,0,0,0,0,0,0,1.1246,1.1241,1.1247,1.121,1.1202,1.1195,1.1155,1.1146,1.1136,1.1131,1.1095,1.1087,1.1058,1.1054,1.105,1.1065,1.1024,1.1043,1.1046,1.1048,1.1103,1.111,1.1116,0,0,0,0,0,1.1248,1.1265,1.1248,1.1243,1.1209,1.1196,1.1191,1.1157,1.1138,1.1144,1.1118,1.1089,1.1066,1.1054,1.105,1.1064,1.1042,1.1045,1.1048,1.11,1.1109,1.1116,0,0,0,0,0,0,1.1305,1.1259,1.124,1.1245,1.1225,1.1186,1.1192,1.1167,1.1152,1.1147,1.1105,1.1097,1.11,1.1082,1.1069,1.1079,1.105,1.1052,1.1091,1.1099,1.1105,1.111,1.1023,0,0,0,0,0,1.1318,1.1312,1.1272,1.1281,1.1272,1.1234,1.1227,1.1203,1.118,1.1171,1.1144,1.1123,1.1111,1.1104,1.109,1.11,1.1091,1.1108,1.1114,1.112,1.1122,1.1127,1.1134,1.1059,1.1059,1.1059,0,0,1.1345,1.1319,1.1318,1.1291,1.1273,1.1267,1.1227,1.1222,1.1218,1.117,1.1166,1.1146,1.1119,1.1124,1.1124,1.1108,1.1141,1.1124,1.1129,1.1128,1.113,1.1137,1.1144,1.1061,1.106,1.106,0,0,1.1391,1.1371,1.1376,1.1359,1.1331,1.1306,1.1308,1.1273,1.1258,1.1254,1.1218,1.1212,1.1192,1.1175,1.1163,1.1204,1.1177,1.1201,1.1235,1.124,1.1245,1.125,1.1265,1.1271,1.1203,1.1203,1.1203,0,1.1427,1.1418,1.1382,1.138,1.1369,1.1326,1.1331,1.1316,1.1285,1.1279,1.1262,1.1237,1.1216,1.1216,1.1226,1.1218,1.1218,1.1204,1.1248,1.1252,1.1256,1.127,1.1276,1.1206,1.1206,1.1206,1.1205,0,1.1464,1.1458,1.1465,1.1438,1.1429,1.143,1.1394,1.1389,1.1365,1.1342,1.1339,1.1312,1.1293,1.1291,1.1268,1.1288,1.1279,1.1256,1.1226,1.1267,1.1279,1.1284,1.1211,1.121,1.1209,1.1208,0,0,1.1544,1.1497,1.1501,1.1488,1.1455,1.145,1.1449,1.1431,1.1428,1.1408,1.1407,1.1392,1.137,1.1357,1.1332,1.1336,1.137,1.1312,1.131,1.1324,1.1391,1.1409,1.1416,1.1352,1.1353,1.1354,1.1393,0,1.1584,1.1581,1.1549,1.1556,1.155,1.1509,1.1509,1.1489,1.1467,1.1459,1.1435,1.1425,1.1397,1.1389,1.1391,1.1366,1.1383,1.1362,1.135,1.135,1.1359,1.1422,1.144,1.1479,1.1398,1.1398,1.1399,0,1.1631,1.1615,1.1621,1.1589,1.1586,1.1586,1.1567,1.156,1.1536,1.152,1.1507,1.1478,1.1475,1.1447,1.1443,1.1429,1.1423,1.1409,1.141,1.1408,1.1377,1.1421,1.149,1.1497,1.1406,1.1405,1.1405,0,1.1689,1.1669,1.1671,1.1661,1.1623,1.1625,1.1609,1.1584,1.1576,1.1559,1.1553,1.1537,1.1528,1.1515,1.1483,1.1466,1.1482,1.1452,1.1469,1.147,1.1474,1.1474,1.1544,1.147,1.147,1.147,1.147,0,1.1737,1.1743,1.1696,1.1697,1.1702,1.1665,1.1671,1.1651,1.1629,1.1625,1.1589,1.1586,1.1544,1.1536,1.1511,1.1511,1.1507,1.1494,1.1487,1.1497,1.1499,1.1492,1.1489,1.1471,1.1471,1.147,1.147,0,1.1803,1.1772,1.1771,1.1736,1.1727,1.1732,1.1702,1.1701,1.1678,1.1673,1.167,1.1633,1.1622,1.1589,1.1569,1.1552,1.156,1.1547,1.1569,1.1564,1.1584,1.1582,1.1651,1.1658,1.158,1.1581,1.1581,0,1.1836,1.184,1.1805,1.18,1.1786,1.1779,1.177,1.1734,1.1727,1.1701,1.1703,1.1689,1.1676,1.1661,1.1632,1.1617,1.1603,1.1629,1.1601,1.1611,1.1604,1.1605,1.1605,1.1635,1.1636,1.1636,1.1637,0,1.1899,1.1883,1.1873,1.1857,1.1848,1.1834,1.1818,1.1816,1.1775,1.1769,1.1757,1.1748,1.1728,1.1715,1.1695,1.1679,1.1651,1.1646,1.1649,1.166,1.1672,1.1666,1.1585,1.1645,1.1644,1.1643,1.1643,1.1643,1.1949,1.1951,1.1927,1.1916,1.19,1.1886,1.1884,1.1861,1.1851,1.1833,1.1812,1.1803,1.178,1.1751,1.1736,1.1729,1.1714,1.1719,1.172,1.1722,1.1727,1.1674,1.1725,1.1725,1.1724,1.1724,1.1724,0,1.201,1.1993,1.1984,1.1963,1.1955,1.193,1.1911,1.1906,1.1899,1.1879,1.1868,1.1855,1.1843,1.1813,1.1798,1.1797,1.1785,1.1795,1.1794,1.1791,1.174,1.1739,1.1805,1.1805,1.1805,1.1805,1.1805,1.1805,1.2041,1.2042,1.2024,1.2017,1.2,1.1992,1.1983,1.1969,1.1954,1.1942,1.1931,1.1913,1.1889,1.1872,1.1859,1.1851,1.1847,1.1861,1.1849,1.1802,1.1794,1.1787,1.1786,1.1861,1.1861,1.19,1.19,1.1901]},{"header":{"parameterUnit":"m.s-1","parameterCategory":1,"la1":30.2991,"la2":30.254,"lo1":-89.0895,"lo2":-89.0444,"dy":0.0017,"dx":0.0017,"nx":28,"ny":28,"refTime":"2025-01-24T09:00:00:Z","depth":0,"parameterNumber":3,"parameterNumberName":"V-component_of_WINDS"},"data":[0,0,0,0,0,0,0,0,0,0,0,0,0,0,0,0,0,0,0,0,0,0,0,0,0,0,0,0,0,0,0,0,0,0,0,0,0,0,0,0,0,0,0,0,0,0,0,0,0,0,0,0,0,0,0,0,0,0,-2.7971,-2.7973,0,-2.8115,-2.8116,-2.8118,-2.8104,-2.8102,-2.81,-2.8098,-2.8246,-2.8252,-2.8258,0,0,0,0,0,0,0,0,0,0,0,0,0,-2.7686,-2.7691,-2.7971,-2.7973,-2.7975,-2.8114,-2.8116,-2.8118,-2.8105,-2.8102,-2.8099,-2.8097,-2.8244,-2.8251,-2.8258,0,0,0,0,0,0,0,0,0,0,0,0,0,-2.7818,-2.7693,-2.7971,-2.7985,-2.7987,-2.8114,-2.8117,-2.8119,-2.8105,-2.8102,-2.8099,-2.8096,-2.8242,-2.8251,-2.8259,-2.8382,0,0,-2.8287,-2.8291,0,0,0,0,0,0,0,0,-2.781,-2.7828,-2.7981,-2.7984,-2.7987,-2.8088,-2.807,-2.8207,-2.8106,-2.8061,-2.8098,-2.8094,-2.8196,-2.8209,-2.8243,-2.8389,-2.8395,-2.8288,-2.8293,-2.8297,-2.83,0,0,0,0,0,0,0,-2.7801,-2.7822,-2.8028,-2.7983,-2.7987,-2.7984,-2.7999,-2.8096,-2.8145,-2.8064,-2.8064,-2.8081,-2.8197,-2.8235,-2.8247,-2.8397,-2.8288,-2.8296,-2.8301,-2.8305,-2.8652,-2.8655,0,0,0,0,0,0,-2.7789,-2.7814,-2.8023,-2.8032,-2.7889,-2.7992,-2.8009,-2.8059,-2.8144,-2.8154,-2.8084,-2.808,-2.8221,-2.8236,-2.8252,-2.8402,-2.8297,-2.8306,-2.8311,-2.8648,-2.8652,-2.8657,0,0,0,0,0,0,-2.7783,-2.7807,-2.8018,-2.7923,-2.795,-2.8,-2.8057,-2.8064,-2.8101,-2.8159,-2.8168,-2.8112,-2.8219,-2.8239,-2.835,-2.8406,-2.831,-2.8318,-2.8643,-2.8649,-2.8655,-2.8702,0,0,0,0,0,0,-2.7774,-2.7805,-2.7852,-2.7924,-2.7955,-2.8113,-2.8061,-2.8069,-2.8116,-2.8113,-2.8188,-2.8198,-2.8218,-2.8336,-2.8359,-2.8417,-2.8325,-2.8639,-2.8646,-2.8653,-2.8695,-2.8708,-2.8719,0,0,0,0,0,-2.7764,-2.786,-2.7855,-2.788,-2.8014,-2.8116,-2.8134,-2.8155,-2.8121,-2.8169,-2.8206,-2.8195,-2.8396,-2.8348,-2.8373,-2.8435,-2.8635,-2.8644,-2.8652,-2.869,-2.8706,-2.8719,0,0,0,0,0,0,-2.7793,-2.7869,-2.7865,-2.7986,-2.8045,-2.8114,-2.8175,-2.8171,-2.824,-2.8234,-2.8257,-2.8275,-2.8386,-2.8421,-2.8366,-2.8558,-2.8511,-2.8525,-2.8531,-2.8547,-2.8559,-2.8548,-2.8332,0,0,0,0,0,-2.7813,-2.7889,-2.7952,-2.8053,-2.8083,-2.8124,-2.8169,-2.818,-2.8242,-2.8267,-2.8312,-2.8373,-2.845,-2.85,-2.8574,-2.87,-2.8717,-2.8755,-2.8767,-2.8776,-2.8789,-2.8859,-2.8877,-2.8685,-2.8685,-2.8684,0,0,-2.7857,-2.7908,-2.7954,-2.806,-2.8107,-2.8186,-2.8145,-2.823,-2.8288,-2.828,-2.8387,-2.8423,-2.8492,-2.8611,-2.8666,-2.8644,-2.8845,-2.8787,-2.8794,-2.8802,-2.8869,-2.8887,-2.8903,-2.869,-2.8689,-2.8688,0,0,-2.7975,-2.8021,-2.8111,-2.8159,-2.823,-2.8256,-2.8278,-2.8348,-2.8371,-2.8479,-2.8474,-2.8545,-2.8677,-2.8727,-2.8769,-2.8907,-2.89,-2.8931,-2.8994,-2.9062,-2.9077,-2.909,-2.9141,-2.9158,-2.8942,-2.8942,-2.8942,0,-2.802,-2.8138,-2.8158,-2.8244,-2.8291,-2.8286,-2.8377,-2.8423,-2.8515,-2.8548,-2.8522,-2.8687,-2.8734,-2.8865,-2.8898,-2.8933,-2.8959,-2.8922,-2.9073,-2.9087,-2.91,-2.9148,-2.9167,-2.8946,-2.8945,-2.8945,-2.8945,0,-2.819,-2.8272,-2.8336,-2.8425,-2.8479,-2.8567,-2.8601,-2.8653,-2.8659,-2.8689,-2.8799,-2.8855,-2.894,-2.8972,-2.8979,-2.9104,-2.9089,-2.9068,-2.9021,-2.9121,-2.9167,-2.9185,-2.895,-2.8949,-2.8948,-2.8947,0,0,-2.8332,-2.843,-2.8453,-2.8494,-2.8572,-2.8636,-2.8724,-2.8807,-2.8852,-2.8916,-2.8991,-2.9103,-2.9084,-2.9132,-2.9145,-2.9204,-2.9311,-2.9176,-2.9178,-2.92,-2.9454,-2.947,-2.9491,-2.9307,-2.931,-2.9313,-2.9449,0,-2.8459,-2.8615,-2.8635,-2.8774,-2.885,-2.8847,-2.8923,-2.898,-2.901,-2.9079,-2.9112,-2.9192,-2.916,-2.919,-2.9248,-2.9286,-2.9363,-2.9276,-2.9378,-2.9381,-2.9361,-2.9515,-2.9532,-2.9657,-2.9466,-2.9469,-2.9472,0,-2.8629,-2.8697,-2.8843,-2.8911,-2.8944,-2.9013,-2.9091,-2.9157,-2.9221,-2.9239,-2.9293,-2.9298,-2.939,-2.9339,-2.9466,-2.9407,-2.945,-2.9474,-2.948,-2.9491,-2.9433,-2.9531,-2.9698,-2.9717,-2.95,-2.9498,-2.9496,0,-2.8719,-2.8847,-2.8951,-2.8985,-2.9067,-2.9116,-2.9152,-2.9213,-2.9262,-2.9331,-2.9363,-2.9441,-2.9484,-2.9545,-2.9571,-2.9531,-2.9698,-2.9648,-2.9715,-2.9715,-2.9751,-2.9749,-2.9928,-2.9777,-2.9777,-2.9776,-2.9776,0,-2.886,-2.8949,-2.8992,-2.9057,-2.9157,-2.918,-2.9279,-2.9313,-2.9368,-2.9439,-2.944,-2.9507,-2.9538,-2.9609,-2.9631,-2.9733,-2.9753,-2.977,-2.9775,-2.9771,-2.9769,-2.98,-2.9792,-2.9781,-2.978,-2.9779,-2.9779,0,-2.8978,-2.901,-2.9123,-2.9191,-2.921,-2.9282,-2.934,-2.9403,-2.9431,-2.9522,-2.9544,-2.959,-2.9675,-2.9707,-2.981,-2.9824,-2.9944,-2.9941,-2.9922,-2.9923,-2.9989,-2.9983,-3.0196,-3.0225,-3.0053,-3.0055,-3.0056,0,-2.9066,-2.9135,-2.921,-2.9258,-2.9296,-2.9372,-2.9422,-2.9447,-2.9499,-2.9578,-2.9631,-2.9715,-2.9784,-2.9919,-2.9962,-3.0042,-3.0041,-3.011,-3.0053,-3.0047,-3.0044,-3.004,-3.0048,-3.0121,-3.0123,-3.0124,-3.0126,0,-2.9219,-2.9232,-2.9303,-2.9381,-2.9441,-2.9503,-2.9564,-2.9603,-2.9637,-2.9695,-2.9782,-2.9835,-2.994,-3.0024,-3.0106,-3.0144,-3.0141,-3.0143,-3.0163,-3.016,-3.0147,-3.0156,-2.9952,-3.0138,-3.0137,-3.0136,-3.0136,-3.0135,-2.9326,-2.9387,-2.945,-2.953,-2.9578,-2.9635,-2.9697,-2.9734,-2.9806,-2.9894,-2.9904,-2.9997,-3.006,-3.0169,-3.0211,-3.0284,-3.0266,-3.0294,-3.0302,-3.0309,-3.0314,-3.0134,-3.0299,-3.0299,-3.0298,-3.0298,-3.0298,0,-2.9481,-2.9521,-2.9594,-2.9679,-2.9742,-2.9733,-2.9799,-2.9853,-2.9935,-2.9993,-3.0061,-3.0161,-3.0242,-3.0292,-3.0374,-3.0423,-3.0424,-3.0444,-3.0441,-3.0451,-3.0325,-3.03,-3.0442,-3.0442,-3.0442,-3.0442,-3.0442,-3.0442,-2.9569,-2.9672,-2.9692,-2.982,-2.9859,-2.995,-2.999,-3.0042,-3.0089,-3.02,-3.0268,-3.0299,-3.0355,-3.0441,-3.0515,-3.0528,-3.0559,-3.058,-3.0592,-3.0474,-3.0459,-3.0445,-3.0422,-3.0587,-3.0587,-3.0711,-3.0712,-3.0713]}]]